Theta_e
314 314 314 313 311 308 305 305 306 310 308 304 297 299 298 298 303 303 302 302 301 300 300 301 301 299 305 308 306 303 308 307 304 311 318 321 320 317 316 310 308 310 309 310
314 314 313 312 310 309 305 305 305 312 308 300 299 299 299 299 301 299 300 301 302 303 302 301 303 304 307 307 309 304 306 304 300 302 313 317 316 317 318 316 315 311 308 310
314 314 313 312 310 309 306 303 302 305 302 299 298 298 296 297 300 299 300 300 302 302 300 302 302 302 304 305 309 314 313 304 302 299 304 314 312 314 317 317 311 311 311 313
313 314 313 312 310 308 304 300 298 298 299 298 296 296 296 295 296 299 300 299 300 301 300 299 298 300 302 307 310 309 305 302 301 304 307 311 310 311 314 313 314 310 312 314
313 314 313 312 310 307 303 300 299 300 297 295 296 295 295 295 295 297 297 298 298 299 299 298 298 298 301 301 305 306 306 302 301 302 304 307 311 313 314 315 314 315 316 316
312 313 313 313 310 305 302 301 301 299 293 295 295 297 296 296 297 298 299 299 299 298 298 300 301 302 302 301 299 301 304 303 301 300 304 304 300 309 313 316 318 317 313 319
312 312 313 313 312 305 303 301 301 297 292 296 295 297 297 296 296 296 298 300 298 300 303 304 302 301 301 301 301 302 301 303 302 300 307 296 306 313 312 315 318 321 320 322
312 312 312 313 312 309 304 303 301 299 292 295 295 296 297 297 297 296 297 299 301 301 301 298 296 297 299 302 302 300 302 303 301 298 301 306 309 312 313 311 312 318 320 323
311 311 312 312 312 310 306 303 302 301 295 292 297 296 296 296 296 296 297 301 303 302 299 296 292 291 295 297 301 301 300 302 301 298 296 296 308 310 317 321 309 320 321 323
311 311 311 312 312 310 307 304 303 301 297 298 298 296 296 298 296 296 297 298 298 302 295 292 291 292 299 295 298 298 298 298 297 299 297 302 310 311 322 310 310 316 322 325
311 311 311 311 312 311 308 304 304 302 297 297 299 300 297 298 298 295 297 295 296 298 292 291 293 293 297 298 302 300 300 298 298 300 297 295 313 316 314 314 318 319 321 322
311 311 311 311 311 312 308 303 306 306 300 297 300 302 304 303 301 299 298 296 295 300 297 298 299 296 299 298 292 304 300 303 302 303 302 313 315 315 318 316 317 318 320 322
311 311 311 311 311 311 310 305 305 301 298 298 297 298 302 304 304 305 296 299 300 300 303 300 298 294 299 296 297 299 305 305 305 306 310 311 314 317 314 314 314 321 317 319
311 311 311 311 312 312 311 306 306 303 299 292 296 302 300 305 305 304 305 302 303 304 304 300 297 293 298 295 297 297 303 302 304 306 311 313 315 314 311 311 313 317 313 314
310 310 311 311 312 312 312 310 309 308 300 293 295 302 302 303 302 301 302 301 300 300 298 298 295 298 296 298 296 294 299 301 301 300 309 310 312 311 310 308 311 312 309 310
310 311 311 311 312 311 307 299 306 308 305 296 291 300 299 302 301 300 300 300 299 299 296 296 299 300 297 292 291 297 299 302 304 305 309 307 307 307 307 307 309 309 308 312
311 311 311 311 311 310 301 298 305 308 307 296 292 292 297 299 301 300 298 300 299 299 298 297 297 298 298 294 290 297 300 301 302 303 303 301 303 302 306 306 307 307 308 312
311 311 310 311 310 309 304 308 308 309 302 298 291 290 294 302 299 298 301 297 298 298 297 298 295 298 297 291 297 299 301 302 301 302 303 303 304 304 304 306 306 305 306 309
310 310 310 309 306 302 304 311 311 309 302 293 291 289 289 301 299 301 299 298 292 300 293 294 296 293 289 295 297 299 301 301 301 302 302 303 302 303 304 304 305 305 306 308
309 307 302 297 302 310 310 305 299 298 299 298 292 297 291 297 297 295 295 298 293 291 293 298 292 291 299 301 302 302 302 303 303 300 300 301 301 303 304 304 306 306 308 311
303 301 300 305 308 307 302 296 293 294 291 295 295 295 292 300 291 291 296 293 295 289 293 292 292 291 298 303 303 304 305 304 304 305 305 305 305 304 304 305 308 309 310 310
303 302 303 303 300 297 291 291 294 292 291 297 295 295 296 297 300 293 295 291 293 288 297 291 289 296 304 304 302 303 303 305 305 306 305 305 305 305 305 306 307 309 311 312
304 298 296 295 294 287 286 286 290 291 297 298 297 296 297 296 297 293 292 290 290 298 291 290 294 302 304 306 305 306 307 305 305 306 306 305 306 307 306 306 308 310 310 313
296 293 286 290 289 289 291 292 294 300 301 299 300 298 298 297 292 293 290 295 297 291 289 289 299 302 303 306 309 311 308 308 305 306 306 306 307 306 309 308 310 310 311 315
294 294 287 290 295 297 297 299 298 301 302 301 300 300 300 297 293 295 295 292 291 293 293 297 300 304 304 309 312 307 306 306 306 307 306 306 307 307 308 310 312 313 314 317
296 295 292 295 293 294 295 296 297 301 300 301 300 296 294 295 295 292 291 289 289 293 297 301 304 304 307 310 313 306 307 306 305 306 306 306 308 308 309 312 315 318 319 316
295 293 297 295 294 293 294 296 297 302 298 294 297 293 295 299 294 291 294 291 296 300 302 306 306 305 309 313 313 308 306 306 306 307 307 309 310 312 313 316 322 322 321 333
Wind_Speed
20 22 23 24 26 30 5 3 2 4 3 0 1 2 2 3 2 5 2 1 2 2 3 4 3 5 1 5 4 10 8 7 8 8 3 3 5 5 9 7 6 2 3 5
19 21 23 24 24 22 4 3 3 2 3 2 2 0 0 3 3 4 5 3 4 4 3 3 2 3 1 7 2 6 8 8 8 9 6 5 7 8 8 4 2 8 4 3
18 20 22 23 24 20 2 2 1 2 4 2 1 2 1 2 4 3 2 2 0 2 3 6 4 3 1 4 7 4 5 7 16 14 10 6 8 10 15 15 5 5 9 6
18 19 20 23 25 19 3 4 3 2 2 3 2 1 1 2 1 3 6 3 5 1 3 2 4 3 2 3 9 2 2 6 4 11 13 14 17 17 15 17 20 11 9 15
17 18 18 21 25 16 4 3 3 1 2 2 1 1 2 3 3 4 2 3 3 2 3 4 3 2 3 4 6 4 4 2 1 5 9 14 13 19 17 21 15 15 11 14
16 17 17 18 21 13 3 2 1 3 2 1 2 1 1 3 2 3 5 2 1 3 4 4 4 5 6 4 4 4 4 1 1 5 4 7 15 24 16 13 14 16 13 19
14 15 15 15 17 10 2 2 2 2 1 2 0 1 1 2 3 1 2 3 0 4 8 8 5 6 8 8 11 8 2 1 2 2 3 16 5 5 21 22 20 21 16 10
13 13 14 14 12 12 3 2 2 2 1 1 2 2 1 1 2 1 1 2 5 6 4 2 4 3 3 6 10 13 13 3 3 5 6 7 8 6 9 15 21 21 21 17
11 12 12 12 9 9 2 2 2 1 2 2 1 1 1 2 2 2 2 1 5 2 1 3 5 6 2 6 5 2 9 9 5 3 6 11 6 2 5 8 9 8 18 14
9 10 11 11 9 7 2 2 2 2 2 1 3 3 1 3 1 1 1 2 2 1 4 6 6 6 2 6 8 8 7 5 13 11 8 5 5 5 6 9 4 11 4 7
8 8 8 9 9 6 2 1 3 3 2 4 5 4 4 3 3 3 4 3 4 3 7 5 4 5 3 4 2 6 10 12 8 8 11 16 7 4 6 6 6 9 10 12
7 8 8 8 7 6 2 1 1 1 3 4 2 5 8 7 5 3 3 4 1 1 3 3 2 4 3 3 6 4 7 5 4 11 7 5 6 8 9 9 6 9 8 10
8 8 8 7 7 6 2 1 1 0 2 4 3 3 2 5 11 8 5 2 3 3 2 0 0 5 2 5 5 5 5 2 5 4 10 7 4 8 8 9 10 6 11 13
9 7 7 7 8 7 2 2 3 1 1 3 2 0 5 3 6 14 13 2 4 3 1 0 2 3 2 2 4 5 3 3 6 9 13 11 7 4 7 13 12 9 12 14
6 7 7 8 8 6 4 3 4 6 2 3 5 13 3 4 7 13 12 13 10 2 2 2 4 2 3 3 4 12 8 10 8 9 1 4 3 6 15 15 14 12 17 24
6 8 6 8 7 4 1 1 1 3 3 2 4 2 2 2 3 8 8 9 7 4 4 3 3 4 5 6 9 15 21 18 17 11 8 11 15 13 17 17 10 15 17 15
7 7 7 6 6 2 2 2 2 4 2 2 4 4 0 2 1 3 4 7 3 4 4 5 4 4 6 8 22 6 13 18 21 20 19 23 24 15 7 13 16 18 19 16
8 7 7 7 7 6 4 4 12 5 1 1 3 4 3 2 1 3 4 5 5 6 5 3 6 6 4 14 16 17 24 22 17 17 19 21 19 18 16 16 16 19 19 17
9 9 9 2 3 2 1 2 7 6 2 1 2 3 2 0 1 1 3 4 5 4 6 6 6 8 14 24 18 17 14 17 22 23 25 25 26 23 23 21 21 17 19 17
7 2 2 2 3 4 4 3 3 2 3 3 3 2 3 1 1 1 3 3 4 4 7 4 6 15 24 24 21 18 18 21 20 22 24 24 23 21 20 18 16 16 16 16
1 1 1 2 6 1 0 2 3 3 3 3 4 7 5 3 5 4 3 2 3 4 5 6 6 9 17 24 26 25 25 24 24 26 26 24 21 19 18 16 15 13 15 16
1 2 2 2 0 1 2 3 4 5 4 4 3 3 5 3 2 3 3 3 3 6 6 5 7 6 5 4 12 17 21 27 29 28 28 25 25 22 18 16 16 16 15 16
1 2 2 3 3 3 4 4 3 3 3 3 3 3 4 3 3 3 4 6 5 3 5 6 7 9 13 24 24 25 25 27 30 30 27 26 25 22 20 18 16 16 17 17
1 2 3 4 4 4 5 4 2 2 2 3 2 3 4 4 5 3 5 5 4 5 5 6 5 19 28 26 24 22 23 27 31 29 25 25 23 20 18 17 17 14 17 17
3 3 4 5 4 3 3 4 5 4 4 4 4 4 4 3 4 5 5 5 5 5 4 9 12 22 29 23 17 13 10 12 20 21 20 22 19 17 16 16 14 16 16 17
2 4 4 2 3 5 5 5 5 2 4 2 3 4 4 5 3 4 5 3 4 4 7 13 17 26 20 15 11 6 8 10 14 15 17 17 17 16 15 12 15 16 13 15
4 4 3 5 6 6 6 5 4 2 2 3 3 5 4 1 4 5 5 5 5 10 13 14 18 25 22 16 6 3 6 9 11 12 12 12 12 11 12 15 12 12 18 19
Wind_Direction
345 346 344 343 344 342 33 333 164 16 257 165 10 184 182 334 324 14 360 127 28 86 67 120 124 153 46 353 215 190 191 227 212 210 119 241 205 166 193 236 182 256 336 286
349 348 345 345 346 357 321 11 308 22 278 210 176 176 112 12 18 37 14 48 21 17 79 120 131 131 78 4 133 173 176 205 212 228 183 137 221 182 188 116 138 204 236 330
351 350 348 346 346 352 317 315 250 37 61 24 115 146 96 148 49 66 28 23 144 117 73 32 125 117 88 337 10 18 213 205 219 229 239 185 203 198 199 206 221 234 235 260
352 353 351 349 347 351 304 5 67 19 47 76 82 219 126 150 148 40 27 83 46 62 128 99 75 15 341 86 3 66 313 232 209 236 242 221 229 233 200 206 228 227 275 232
352 355 356 354 350 347 73 359 340 59 67 315 227 359 170 178 128 349 40 105 54 41 94 33 128 345 19 32 346 33 5 185 183 261 236 222 230 233 219 222 228 246 246 256
351 354 359 3 1 356 47 38 152 292 38 80 231 80 144 131 166 58 39 113 96 90 68 339 306 289 291 288 330 339 355 15 248 236 349 224 235 235 222 217 206 227 222 246
350 353 358 9 12 32 19 36 301 314 88 278 85 148 47 105 53 99 46 30 358 39 314 267 233 227 244 248 242 235 298 252 220 276 197 230 259 243 225 223 218 214 236 241
346 351 355 9 15 22 49 18 325 6 315 313 222 213 117 71 360 118 253 57 12 326 328 298 293 210 225 225 227 206 216 244 243 248 231 302 272 204 188 200 237 227 229 234
340 346 351 359 17 23 69 45 323 321 307 157 50 158 339 224 196 196 215 89 341 335 285 206 216 219 198 204 169 56 190 231 256 177 236 242 230 342 309 221 249 299 225 227
334 339 344 348 2 35 51 50 10 303 298 202 202 206 188 137 148 177 312 1 171 340 186 208 208 219 251 222 195 165 162 183 214 218 248 255 268 295 179 180 52 354 338 190
322 326 332 336 346 12 20 62 11 353 309 275 224 214 181 157 198 206 126 206 184 184 203 209 190 229 195 257 235 181 179 177 189 203 222 235 9 172 228 14 24 42 1 6
311 316 321 324 330 360 109 46 38 4 227 302 293 276 271 252 223 173 195 328 168 158 215 216 225 207 226 251 224 182 225 258 210 213 206 101 44 78 81 37 22 15 355 345
304 303 311 313 306 298 275 250 161 244 301 266 261 230 222 224 233 231 232 196 240 198 333 218 176 240 214 217 221 291 199 347 243 258 208 217 39 126 62 32 16 354 356 336
298 303 308 309 306 313 318 233 152 142 283 285 292 115 262 200 216 213 224 131 122 79 270 137 254 254 211 255 330 263 289 307 226 246 273 269 169 115 1 348 349 342 341 338
307 306 305 307 307 314 289 248 224 221 232 281 286 303 280 262 236 223 213 215 223 211 222 209 226 259 233 218 269 242 208 224 221 247 188 280 289 335 327 327 331 339 340 334
282 291 300 299 310 331 305 268 138 207 183 271 292 356 258 284 194 201 176 195 203 206 206 220 233 225 238 245 252 242 232 231 243 248 268 270 276 288 298 300 319 321 323 318
286 288 295 299 302 179 233 326 84 149 132 238 278 289 224 303 162 146 174 190 161 202 208 220 227 205 214 250 250 225 230 240 239 247 263 273 265 271 279 296 304 307 302 305
299 297 294 286 277 259 257 249 179 145 213 218 282 278 294 212 171 185 169 165 180 206 214 194 215 223 224 250 246 239 243 246 247 243 243 257 277 279 273 282 293 297 295 303
299 303 296 269 184 221 249 264 190 186 238 235 206 282 338 83 285 268 193 189 198 184 213 209 201 201 225 240 238 244 242 231 240 241 248 254 257 267 274 277 277 276 283 293
307 141 198 202 206 270 198 179 152 147 178 225 238 213 265 189 192 301 280 180 221 235 206 175 226 245 253 255 250 248 243 242 235 236 239 243 249 251 257 260 265 268 272 284
358 292 257 346 323 256 259 242 193 158 225 211 226 207 218 198 212 215 219 253 223 240 183 218 232 250 233 238 242 244 245 242 239 235 238 238 236 246 250 248 251 262 269 271
21 311 306 295 234 120 294 227 168 218 235 182 209 218 198 207 178 202 215 241 226 249 146 228 252 263 253 223 239 242 237 238 238 232 237 235 236 238 244 251 258 263 271 276
154 212 240 199 142 207 225 212 189 220 200 182 211 224 202 159 194 211 243 229 234 319 223 236 245 308 308 300 284 275 253 234 229 232 225 229 233 236 240 248 251 260 269 271
233 237 256 215 188 222 216 263 288 326 307 342 290 252 233 174 186 227 248 234 245 242 237 249 305 303 295 296 287 279 266 228 215 219 218 221 224 230 234 242 252 256 260 267
248 216 241 229 248 270 287 297 281 279 300 295 293 266 235 187 228 203 246 234 249 255 269 295 298 309 303 294 302 286 279 211 199 207 207 214 214 221 235 239 249 249 256 266
229 233 258 262 268 254 249 250 258 307 278 269 224 252 265 215 222 219 226 277 254 273 282 290 296 307 306 309 306 249 225 201 190 193 196 202 209 216 230 245 244 246 253 270
237 233 224 255 280 274 266 248 237 197 240 234 257 243 249 102 224 233 199 210 241 274 288 298 303 312 324 336 358 283 202 180 172 172 183 199 211 218 234 244 260 269 257 243